Temp
-1 -1 -1 -2 -3 -3 -3 -2 -3 -2 -3 -3 -3 -3 -3 -2 -2 -3 -2 -2 -2 -3 -2 -1 0 0 1 4 5 6 6 6 7 7 8 8 8 8 9 9 9 9 9 9 9 10 10
-1 -1 -1 -2 -2 -2 -2 -3 -4 -3 -2 -3 -3 -3 -3 -2 -2 -2 -2 -3 -2 -2 -2 -0 -0 0 1 3 5 6 6 6 7 7 8 8 8 8 8 9 9 9 9 9 9 9 9
-0 -1 -2 -2 -2 -2 -3 -3 -3 -3 -2 -2 -3 -3 -3 -3 -3 -2 -2 -2 -3 -2 -1 -0 -0 0 1 4 5 6 6 6 7 7 7 7 7 8 8 9 9 9 9 9 9 9 9
-0 -1 -1 -1 -2 -2 -2 -2 -3 -2 -1 -2 -3 -3 -2 -2 -3 -2 -1 -2 -2 -1 -1 0 0 1 2 4 5 6 6 7 7 7 7 7 7 8 8 8 8 8 8 8 9 9 9
0 -0 -0 -0 -1 -1 -1 -2 -2 -2 -1 -1 -2 -2 -2 -3 -2 -2 -2 -2 -1 -0 0 1 1 2 3 4 5 6 6 7 7 7 7 7 7 8 8 8 8 8 8 8 8 8 8
1 0 -0 -0 -0 -0 -0 -1 -1 -1 -1 -1 -1 -1 -1 -1 -1 -1 -1 -0 -0 0 1 2 2 2 3 4 5 6 6 6 7 7 7 7 7 7 8 8 8 8 8 8 8 8 8
1 1 1 0 0 0 0 0 -0 -0 -1 -1 -1 -1 -0 -0 -0 -0 -0 0 0 1 2 3 3 3 3 4 5 5 6 6 6 7 7 7 7 7 7 7 7 8 7 7 7 7 8
2 2 2 1 1 1 1 1 1 0 0 0 0 0 0 1 1 1 0 1 1 2 2 2 2 3 3 3 4 5 5 5 5 6 6 6 6 7 7 7 7 7 7 7 7 7 7
2 2 2 2 2 2 1 1 1 1 1 1 1 1 1 1 1 1 1 1 2 2 2 2 2 3 3 4 4 4 5 5 5 5 6 6 6 6 6 6 6 6 6 6 6 6 6
2 2 2 2 2 2 2 2 2 2 2 2 2 2 2 1 1 1 2 2 2 3 3 2 3 3 3 4 4 4 5 5 5 5 5 6 6 6 6 6 6 5 5 5 5 5 5
3 2 2 2 2 2 3 2 3 3 2 2 2 2 2 2 2 3 3 3 3 4 -3 3 3 3 4 4 4 4 5 5 5 5 5 5 5 5 5 5 5 5 5 5 5 5 4
3 3 3 3 2 2 3 3 3 3 3 3 3 3 3 3 3 4 4 4 4 4 1 3 3 3 4 4 4 4 5 5 5 5 5 5 5 5 5 5 4 4 4 4 4 3 -1
3 3 3 3 3 3 3 3 3 3 3 3 3 3 3 3 3 4 4 4 4 3 2 2 3 3 4 4 4 4 4 4 5 5 5 4 5 5 4 4 4 4 4 4 -2 -4 -4
3 3 3 3 3 3 3 3 3 3 4 4 3 4 4 4 4 4 4 5 5 3 3 3 3 3 4 4 4 4 4 4 4 4 4 4 4 4 4 3 4 3 3 2 -1 -4 -3
2 2 3 3 3 3 3 3 4 4 3 4 4 4 4 4 4 4 4 5 4 3 3 3 3 3 3 3 4 4 4 4 4 4 4 4 4 3 3 3 3 2 2 2 2 -1 -2
2 2 2 2 3 3 3 3 3 4 4 4 4 4 4 4 4 4 4 4 4 3 3 3 3 3 3 3 4 4 3 3 3 3 3 3 3 3 3 2 2 2 1 1 2 -1 -2
3 2 2 2 3 3 3 3 3 3 4 4 4 3 4 4 4 4 4 4 3 3 3 3 3 3 3 3 3 3 3 3 3 3 3 3 2 2 2 3 2 2 1 1 1 1 -3
3 3 3 3 3 3 2 3 3 3 3 4 3 3 3 3 4 4 4 4 3 3 3 3 3 3 3 3 3 3 3 3 3 2 2 2 2 2 2 2 2 1 1 1 1 0 -0
3 2 3 3 3 3 3 3 3 3 3 3 3 2 2 3 3 3 3 3 3 3 2 3 3 3 3 2 2 2 2 2 2 2 2 2 2 2 2 1 1 1 2 1 0 -0 -0
3 3 3 3 3 3 3 3 3 3 2 3 3 2 2 2 2 2 2 2 2 2 2 2 2 2 2 2 3 3 3 2 2 2 2 1 1 2 3 3 2 1 2 2 0 -1 1
3 3 3 3 3 3 3 2 2 3 2 2 3 3 2 2 1 1 1 1 2 2 2 2 2 2 2 2 2 2 2 2 1 1 1 0 1 1 2 1 1 1 1 1 0 1 0
2 2 2 3 3 3 3 2 2 2 2 2 2 2 2 2 2 1 0 0 1 1 1 1 1 1 1 2 1 1 1 1 0 0 -0 -0 -0 -0 1 1 1 1 2 2 1 0 -0
1 2 2 2 2 3 3 2 2 2 2 2 1 1 2 1 1 2 2 1 0 -0 -0 0 1 0 0 0 0 0 0 -0 -0 -0 -1 -1 -1 -2 -1 0 -0 1 4 3 3 2 2
1 1 1 1 2 2 2 2 2 2 2 2 1 1 1 1 1 1 0 1 2 1 0 -1 -1 -1 -0 -0 -0 -0 0 0 0 0 -0 -1 -2 -3 -2 -2 -4 3 2 2 2 3 2
1 1 1 1 1 1 2 2 2 2 2 1 2 1 1 1 0 -0 -0 -1 -0 0 1 1 1 -0 -1 -1 -1 -1 0 1 1 1 0 -1 -3 -3 -2 -3 -0 2 2 2 2 2 1
0 0 0 1 1 1 1 1 1 1 1 1 1 1 1 0 0 0 0 -1 -2 -2 -1 -0 -0 -0 0 0 -0 -2 -0 0 0 0 1 -1 -2 -4 -4 -4 -3 2 1 1 -0 -0 0
-0 -1 -0 -0 -0 -0 -0 -0 -0 0 0 0 0 0 0 0 -0 -1 -2 -1 -0 -1 -2 -2 -2 -2 -2 -1 -1 -1 -1 -1 -1 0 0 -0 -2 -4 -5 -5 -3 -0 -0 -1 -2 -2 -1
-0 -1 -2 -1 -1 -1 -1 -1 -1 -1 -1 -1 -1 -0 -0 -0 -0 -0 -1 -2 -2 -2 -2 -2 -3 -2 -2 -3 -3 -2 -2 -2 -2 -1 -1 -1 -1 -2 -4 -6 -4 -2 -2 -2 -2 -2 -2
-0 -1 -1 -1 -1 -1 -1 -1 -2 -2 -2 -2 -2 -2 -2 -1 -1 -2 -2 -2 -2 -3 -3 -3 -3 -4 -3 -3 -3 -4 -3 -4 -3 -3 -2 -3 -2 -2 -2 -1 -1 -2 -3 -4 -4 -4 -4
Height
3094 3090 3086 3079 3073 3066 3062 3057 3052 3050 3049 3049 3049 3049 3048 3048 3048 3045 3046 3048 3054 3055 3062 3068 3076 3080 3083 3093 3100 3106 3111 3115 3119 3125 3129 3134 3138 3142 3146 3149 3151 3153 3155 3156 3157 3158 3158
3099 3094 3091 3085 3079 3073 3068 3062 3056 3054 3053 3053 3054 3055 3054 3050 3050 3052 3051 3053 3059 3061 3068 3073 3079 3083 3086 3095 3100 3107 3112 3116 3120 3126 3130 3135 3138 3143 3145 3148 3151 3152 3154 3155 3155 3156 3156
3104 3099 3095 3091 3086 3079 3073 3067 3062 3060 3059 3058 3058 3057 3058 3057 3057 3058 3059 3061 3064 3069 3074 3079 3084 3087 3090 3095 3101 3109 3113 3117 3122 3126 3130 3135 3139 3143 3145 3148 3149 3151 3153 3153 3153 3153 3153
3108 3104 3100 3096 3092 3087 3081 3075 3070 3066 3065 3063 3062 3061 3062 3063 3063 3064 3066 3070 3073 3076 3080 3085 3088 3090 3092 3096 3103 3110 3114 3119 3123 3127 3131 3135 3138 3142 3145 3147 3149 3150 3151 3152 3151 3151 3151
3113 3109 3105 3100 3096 3093 3089 3084 3079 3075 3072 3070 3066 3067 3067 3069 3071 3073 3074 3077 3079 3082 3085 3090 3093 3093 3095 3099 3105 3111 3116 3120 3124 3127 3131 3135 3139 3141 3145 3147 3149 3148 3148 3149 3150 3149 3149
3118 3114 3110 3105 3101 3098 3095 3091 3088 3084 3080 3077 3077 3076 3077 3078 3079 3080 3081 3082 3085 3087 3090 3093 3096 3099 3099 3102 3107 3112 3117 3122 3125 3128 3132 3136 3138 3141 3143 3145 3146 3146 3147 3147 3148 3148 3146
3121 3118 3115 3111 3107 3104 3100 3097 3094 3091 3089 3086 3084 3085 3085 3085 3085 3085 3086 3087 3091 3094 3094 3096 3099 3098 3101 3105 3110 3114 3119 3122 3126 3130 3132 3135 3139 3140 3142 3143 3144 3145 3146 3146 3146 3145 3143
3125 3122 3118 3115 3112 3109 3106 3102 3100 3097 3096 3094 3093 3091 3090 3090 3090 3091 3092 3092 3093 3096 3097 3100 3102 3104 3106 3109 3113 3117 3121 3125 3127 3131 3134 3138 3138 3140 3141 3142 3143 3144 3144 3144 3144 3143 3141
3128 3125 3122 3119 3116 3113 3110 3108 3105 3102 3100 3099 3098 3097 3096 3095 3095 3096 3097 3098 3098 3099 3101 3106 3107 3108 3111 3114 3117 3120 3124 3126 3129 3132 3134 3137 3138 3139 3140 3141 3142 3142 3142 3142 3142 3140 3137
3132 3128 3126 3122 3119 3116 3113 3111 3109 3107 3105 3103 3102 3102 3102 3101 3102 3101 3102 3103 3103 3103 3106 3112 3111 3114 3115 3116 3120 3122 3125 3129 3130 3132 3135 3137 3137 3138 3139 3140 3141 3140 3140 3139 3138 3138 3137
3137 3133 3130 3126 3123 3120 3116 3114 3111 3109 3108 3107 3106 3105 3105 3106 3106 3105 3106 3105 3106 3106 3109 3116 3114 3115 3117 3120 3122 3124 3126 3128 3130 3133 3136 3136 3136 3137 3138 3139 3139 3139 3139 3137 3136 3135 3134
3142 3139 3135 3132 3128 3124 3120 3117 3114 3111 3109 3108 3108 3107 3107 3107 3107 3108 3107 3106 3107 3109 3112 3115 3116 3117 3120 3120 3123 3124 3127 3130 3131 3133 3133 3135 3136 3136 3136 3137 3138 3138 3137 3136 3134 3133 3132
3146 3143 3139 3136 3132 3129 3124 3120 3117 3115 3112 3110 3109 3109 3108 3108 3109 3108 3108 3107 3109 3107 3115 3117 3117 3118 3120 3122 3124 3125 3127 3129 3131 3133 3133 3133 3134 3134 3135 3136 3136 3136 3137 3136 3136 3135 3131
3148 3146 3143 3139 3135 3132 3128 3125 3121 3117 3115 3113 3111 3110 3110 3110 3110 3110 3110 3110 3108 3112 3112 3115 3117 3120 3122 3123 3124 3126 3127 3129 3130 3131 3132 3133 3134 3133 3133 3134 3135 3134 3135 3135 3139 3136 3128
3149 3147 3144 3142 3139 3135 3131 3128 3124 3121 3118 3115 3114 3112 3111 3110 3110 3110 3111 3111 3111 3112 3114 3116 3118 3120 3121 3122 3124 3125 3127 3128 3128 3129 3132 3131 3130 3130 3131 3132 3134 3132 3132 3134 3132 3130 3129
3148 3146 3144 3143 3140 3138 3134 3131 3128 3124 3121 3119 3116 3114 3112 3111 3110 3110 3111 3111 3112 3113 3115 3118 3119 3120 3121 3122 3125 3125 3126 3127 3127 3128 3129 3129 3130 3129 3129 3130 3130 3130 3132 3132 3131 3132 3129
3148 3147 3145 3143 3141 3138 3136 3134 3130 3127 3124 3121 3119 3116 3114 3112 3112 3111 3111 3111 3112 3114 3117 3119 3119 3120 3122 3123 3124 3125 3126 3127 3126 3126 3127 3128 3129 3129 3127 3126 3126 3127 3127 3128 3129 3127 3125
3150 3147 3145 3144 3142 3139 3137 3134 3132 3129 3127 3122 3119 3117 3115 3113 3115 3113 3112 3112 3114 3115 3117 3119 3120 3120 3121 3123 3123 3125 3125 3125 3125 3125 3126 3127 3126 3125 3125 3124 3124 3123 3123 3124 3125 3123 3120
3149 3148 3147 3145 3142 3140 3138 3135 3132 3130 3127 3125 3120 3117 3116 3115 3115 3115 3115 3115 3115 3117 3118 3119 3119 3120 3121 3122 3124 3123 3123 3123 3123 3124 3124 3124 3123 3123 3121 3123 3120 3119 3118 3119 3119 3118 3114
3148 3146 3144 3143 3143 3140 3137 3135 3133 3130 3126 3125 3122 3119 3118 3116 3116 3116 3117 3117 3117 3117 3117 3118 3119 3119 3120 3121 3122 3122 3122 3123 3122 3123 3123 3123 3121 3120 3119 3118 3118 3116 3115 3114 3114 3111 3106
3145 3144 3143 3142 3140 3139 3137 3135 3133 3131 3128 3126 3123 3121 3120 3118 3117 3116 3117 3117 3118 3119 3119 3118 3118 3118 3119 3119 3119 3119 3120 3120 3120 3120 3120 3120 3117 3116 3116 3115 3112 3110 3109 3109 3104 3103 3101
3143 3142 3140 3139 3137 3136 3136 3134 3133 3131 3128 3126 3125 3122 3119 3118 3118 3117 3116 3116 3116 3117 3118 3118 3118 3118 3118 3118 3118 3117 3117 3117 3117 3117 3116 3115 3114 3111 3109 3109 3106 3102 3101 3099 3097 3095 3092
3140 3139 3138 3137 3136 3134 3132 3133 3132 3131 3130 3127 3124 3122 3120 3119 3116 3116 3115 3115 3114 3114 3115 3115 3115 3115 3116 3116 3116 3115 3115 3114 3113 3113 3113 3112 3111 3110 3105 3104 3102 3098 3093 3091 3089 3088 3088
3136 3135 3134 3133 3133 3132 3131 3128 3128 3128 3128 3127 3125 3123 3120 3118 3116 3115 3114 3113 3113 3112 3112 3111 3112 3111 3112 3111 3111 3111 3110 3109 3108 3108 3107 3106 3106 3106 3103 3101 3102 3092 3090 3088 3087 3085 3082
3130 3130 3130 3129 3128 3129 3129 3127 3124 3123 3123 3123 3123 3122 3120 3117 3116 3114 3112 3111 3111 3110 3109 3109 3109 3109 3108 3108 3108 3106 3105 3103 3101 3099 3099 3099 3101 3102 3101 3096 3090 3088 3085 3083 3081 3081 3078
3122 3123 3123 3123 3123 3122 3122 3123 3123 3121 3119 3118 3118 3117 3116 3115 3115 3112 3110 3109 3109 3108 3107 3106 3105 3103 3104 3104 3104 3105 3105 3102 3099 3096 3094 3095 3095 3098 3095 3093 3088 3083 3081 3077 3075 3073 3071
3114 3114 3115 3115 3116 3114 3115 3114 3115 3115 3114 3113 3111 3111 3111 3109 3108 3108 3108 3107 3105 3104 3102 3102 3101 3100 3100 3098 3097 3096 3094 3094 3093 3092 3092 3091 3090 3089 3089 3087 3079 3078 3076 3073 3074 3074 3067
3106 3106 3106 3107 3107 3107 3107 3107 3107 3106 3107 3107 3106 3105 3105 3103 3103 3101 3101 3100 3099 3099 3098 3098 3098 3095 3095 3094 3092 3091 3088 3088 3085 3083 3083 3083 3083 3082 3084 3084 3077 3072 3071 3072 3069 3064 3063
3097 3096 3097 3097 3099 3098 3099 3098 3098 3098 3098 3098 3100 3099 3098 3097 3098 3095 3094 3093 3093 3093 3093 3091 3092 3092 3091 3090 3089 3086 3084 3082 3081 3081 3080 3080 3078 3078 3077 3071 3068 3067 3065 3062 3060 3057 3053
Wind_Speed
30 32 31 33 36 30 24 21 14 10 12 15 18 18 16 8 3 13 13 3 17 28 27 27 29 29 32 33 27 29 27 25 25 24 23 22 20 18 18 18 17 14 12 10 10 10 11
28 27 29 32 33 32 29 27 22 14 12 14 15 19 18 11 13 15 16 19 24 27 25 26 26 27 32 28 26 28 25 24 24 23 22 21 19 16 17 16 15 13 11 10 10 12 13
24 24 29 31 33 34 34 35 27 20 14 13 14 15 16 16 12 11 21 19 26 25 23 21 23 23 25 28 29 27 25 24 23 22 20 19 16 14 14 13 13 11 10 10 12 13 14
24 22 25 27 30 32 32 33 31 24 21 21 17 17 13 17 12 14 20 20 23 22 20 18 19 22 23 28 28 25 24 23 22 21 19 17 16 14 12 13 12 12 10 11 12 13 14
22 20 23 23 25 29 30 30 29 28 26 25 24 23 21 19 18 19 20 22 20 20 19 16 15 18 26 30 28 25 24 23 22 20 19 17 15 13 12 11 10 11 9 12 12 13 13
21 19 18 19 21 25 27 28 26 25 27 29 29 27 23 20 20 19 21 22 20 19 18 15 16 13 25 27 27 25 24 22 21 20 18 16 15 13 13 13 8 9 13 11 11 13 14
19 19 19 18 17 18 22 24 24 22 22 22 24 22 19 18 17 18 19 20 21 20 16 12 7 18 24 25 26 24 23 21 19 18 18 16 14 14 13 13 13 10 10 11 13 16 20
19 17 17 17 17 17 17 18 19 19 18 17 17 16 16 18 19 19 18 12 13 19 23 19 20 20 20 20 22 21 20 19 17 16 14 13 13 13 12 12 11 11 11 12 14 16 19
25 22 19 17 15 14 14 14 14 15 14 13 13 15 13 12 13 14 15 17 19 21 22 20 17 17 18 17 16 16 15 14 14 13 12 12 10 12 11 11 10 11 11 12 15 17 20
27 27 25 22 19 17 13 11 10 11 11 11 9 10 10 12 16 17 15 14 13 12 11 11 12 11 13 14 13 13 12 11 11 11 10 8 9 11 10 10 10 10 11 12 13 14 9
28 28 28 26 25 22 18 15 11 8 8 8 8 9 10 11 12 12 12 10 7 5 5 6 8 10 12 7 13 11 10 9 9 8 10 7 8 9 9 9 10 10 11 12 15 17 17
22 23 26 28 28 25 22 18 15 12 8 7 7 7 8 9 9 9 8 8 4 1 4 5 7 9 9 6 9 10 8 7 7 7 8 7 7 8 10 10 10 11 11 14 17 13 4
17 19 21 23 26 27 26 21 16 14 13 10 7 5 7 6 5 5 6 9 3 5 8 7 9 10 7 8 7 8 7 8 5 5 7 7 9 10 10 11 11 11 10 5 4 1 4
15 17 19 20 22 23 23 25 22 15 12 12 11 9 4 3 3 2 5 6 5 6 6 10 11 9 7 8 6 7 6 6 6 5 3 5 4 9 11 12 10 7 7 3 5 2 4
15 16 16 17 18 19 20 21 22 22 16 9 9 11 9 5 1 1 2 2 3 5 8 11 11 8 7 5 4 5 5 6 6 7 5 3 4 6 9 8 8 5 7 7 4 5 4
15 16 16 16 16 16 16 17 20 22 22 16 9 9 8 7 5 3 2 3 4 7 9 10 4 5 5 5 4 4 5 4 7 8 7 5 5 8 10 11 12 12 7 4 5 1 4
12 14 16 17 16 15 13 13 16 19 20 18 13 8 8 5 4 3 2 4 7 7 9 7 4 4 5 5 6 5 4 4 6 5 8 8 7 5 6 6 8 11 12 10 6 6 4
12 13 14 16 17 16 15 13 12 15 18 20 15 10 9 4 3 2 4 6 7 9 6 4 3 3 5 5 5 6 6 5 3 4 6 7 6 7 9 11 12 13 14 14 7 5 8
11 12 13 14 15 16 16 15 14 14 16 20 18 13 10 8 5 3 3 5 7 7 5 4 4 4 5 6 4 8 6 7 8 8 5 6 6 4 4 8 13 16 17 19 19 15 15
12 12 13 13 14 15 15 15 14 13 14 19 19 16 11 9 6 4 2 1 4 6 6 6 5 6 6 8 9 5 7 5 7 8 10 10 12 13 10 9 12 13 14 13 18 13 16
13 13 14 15 14 14 13 14 13 14 15 17 18 17 15 10 6 4 2 1 2 4 6 7 7 9 9 8 10 12 11 10 10 10 10 10 14 16 17 17 21 24 24 25 31 33 29
16 16 15 14 14 14 14 12 14 13 12 14 15 17 16 10 8 4 2 1 3 4 6 7 8 8 9 10 11 8 9 10 11 10 12 13 12 16 22 20 24 30 29 31 36 38 41
19 19 18 17 17 15 14 15 14 15 16 13 12 13 13 11 6 5 6 4 3 4 5 6 8 8 9 10 11 12 13 14 15 15 14 16 16 13 11 13 17 20 15 14 18 24 27
22 22 21 20 19 18 17 15 14 16 17 19 18 15 12 11 9 6 5 7 9 9 8 8 10 11 11 12 14 15 16 17 19 19 21 22 20 14 13 16 2 9 12 21 24 27 24
23 23 23 23 21 19 20 21 17 15 16 19 20 18 18 12 11 10 8 9 10 11 12 12 12 11 11 12 14 13 15 17 19 21 24 25 22 11 7 8 19 26 20 12 16 20 25
26 27 26 26 25 23 22 22 23 22 20 19 21 21 19 16 13 14 13 14 13 13 14 14 15 15 16 16 14 8 6 6 6 7 11 16 19 21 12 6 6 11 16 26 29 27 16
33 31 32 30 29 28 26 25 25 26 25 24 22 22 22 20 14 15 16 17 16 16 16 16 17 17 18 19 19 19 19 21 12 14 15 17 19 27 27 12 14 22 22 21 12 10 13
32 31 30 32 32 31 30 30 27 28 27 26 27 26 25 25 23 24 22 20 22 23 23 18 15 18 17 17 14 14 12 14 16 20 17 14 10 12 14 10 12 8 9 10 14 20 24
32 32 31 30 31 31 32 31 30 29 30 29 28 28 28 28 27 29 28 25 25 23 21 23 24 20 11 10 10 9 12 11 13 11 15 16 21 17 16 16 19 25 33 29 29 32 30
Wind_Direction
52 49 42 37 40 43 48 39 51 67 66 79 80 96 89 87 4 20 25 337 214 139 148 156 171 166 158 164 174 176 170 170 170 173 175 176 176 179 185 194 199 206 208 215 229 248 263
49 45 41 40 38 40 38 39 40 78 75 87 91 100 102 81 53 60 56 85 129 129 143 157 166 164 157 164 168 168 166 167 168 170 171 172 174 180 191 196 198 206 211 223 239 253 261
44 47 42 41 39 37 34 38 55 67 81 75 87 90 85 80 80 101 107 121 124 136 147 158 162 159 154 157 158 162 163 165 166 168 166 169 174 181 187 195 201 207 215 231 243 252 260
47 49 46 43 40 40 39 38 48 64 80 83 75 94 90 88 103 114 113 129 137 140 137 149 155 153 152 150 152 157 161 163 164 166 165 169 174 184 188 200 202 212 227 236 243 248 255
44 45 40 44 43 42 42 42 46 66 79 78 75 80 84 89 105 114 126 135 130 127 123 136 148 144 144 148 152 157 161 163 163 165 168 172 177 186 194 205 211 218 231 234 246 252 262
47 45 39 41 42 43 41 44 46 50 66 74 76 76 78 89 102 112 121 117 118 118 121 126 138 135 143 146 152 158 161 163 165 166 170 176 184 194 204 211 218 230 234 243 254 266 269
47 46 47 44 43 45 47 46 48 50 53 62 71 73 76 84 95 106 112 115 116 115 116 114 138 141 141 146 152 157 162 161 166 172 178 185 192 203 213 221 231 241 243 255 268 278 285
46 45 42 44 46 47 52 56 52 51 53 53 54 60 75 86 90 97 102 102 110 111 109 110 118 127 135 143 148 155 160 164 170 177 185 193 206 213 220 225 234 244 254 267 278 286 292
52 47 44 40 39 43 48 54 60 60 56 54 51 52 80 83 91 94 98 104 110 112 103 108 114 123 133 140 148 153 161 167 174 184 194 204 218 217 223 230 238 251 264 275 284 293 295
53 52 48 44 39 39 40 45 53 63 70 70 63 65 80 92 98 97 97 99 105 101 97 100 108 115 133 140 149 159 167 172 181 190 200 216 221 219 226 237 249 266 273 281 293 302 295
52 50 48 46 44 40 36 38 48 57 67 69 86 100 102 109 93 79 74 76 94 101 66 107 106 127 140 152 157 166 172 181 188 201 199 215 218 221 232 245 257 269 282 291 291 289 290
41 45 43 42 40 39 37 35 36 43 61 68 75 87 110 124 108 81 49 34 48 100 79 118 126 132 141 131 158 167 175 183 191 200 211 228 223 227 240 251 259 269 285 291 285 285 279
33 31 31 34 34 33 35 34 34 34 39 53 61 69 80 91 123 87 32 18 36 59 123 127 133 138 137 141 150 163 174 184 192 196 218 232 244 249 253 258 262 263 276 301 334 343 220
23 23 24 24 22 27 33 33 33 34 29 32 42 46 52 89 109 40 19 12 50 119 119 137 140 143 149 146 155 176 190 203 220 227 237 226 246 241 250 249 251 253 231 223 235 244 280
11 16 18 20 24 24 30 35 34 31 27 25 25 33 34 45 76 280 349 45 90 138 143 145 149 160 163 173 173 194 215 228 232 233 224 239 248 246 242 241 233 242 228 242 268 283 304
1 6 11 17 21 25 24 31 32 32 31 27 24 15 14 20 36 55 87 96 123 133 149 159 156 173 184 194 202 204 223 244 241 239 234 251 270 259 249 251 247 239 243 236 228 211 270
355 358 1 7 12 21 26 26 26 27 27 23 15 9 7 357 14 32 73 109 141 150 152 161 178 181 197 204 217 218 241 250 242 244 238 245 246 259 253 246 248 236 233 230 240 236 203
341 350 355 358 0 4 12 21 22 24 23 19 13 15 10 17 19 54 94 120 135 147 155 163 182 198 207 219 240 238 247 247 257 251 243 236 257 250 252 254 248 242 236 231 225 222 225
328 338 342 348 353 355 0 8 12 17 20 18 15 18 24 29 43 62 115 135 152 167 179 202 218 229 236 233 239 237 249 254 253 244 242 226 239 260 257 249 248 245 248 240 235 250 243
312 321 329 341 345 346 352 358 3 8 21 19 16 20 21 25 40 60 62 184 191 204 215 220 225 228 230 235 236 251 239 248 242 242 245 254 252 244 254 284 281 261 268 252 235 238 247
295 304 314 324 334 339 343 348 356 2 10 23 28 27 18 9 29 36 38 281 269 260 255 248 245 236 234 235 242 248 252 256 259 260 255 254 266 269 271 274 276 275 270 262 256 261 256
291 296 301 306 315 324 328 336 343 353 5 17 17 19 19 18 356 348 37 318 284 279 272 262 259 258 257 255 250 258 249 257 262 265 261 263 273 286 288 287 280 277 276 270 265 263 264
287 290 294 299 305 310 316 321 326 334 339 354 4 6 4 357 0 333 311 271 238 257 263 264 264 267 271 268 265 264 268 269 267 267 265 267 275 289 289 294 299 293 297 292 287 273 275
285 285 289 294 298 301 304 306 310 315 319 328 339 348 354 344 334 312 298 291 290 272 250 248 256 256 258 259 264 266 268 271 268 266 263 265 268 269 275 295 245 286 301 298 292 290 299
279 283 287 290 293 295 297 300 300 300 303 310 318 329 335 333 321 305 284 275 271 264 269 271 273 273 268 265 274 279 274 267 263 257 257 259 257 249 255 252 280 286 287 287 301 296 297
274 277 278 281 285 288 290 292 294 297 296 295 300 308 315 321 320 306 293 281 275 268 265 261 259 260 266 269 266 262 269 289 277 267 250 247 242 235 233 239 239 280 288 296 299 300 293
273 271 274 275 276 277 278 280 282 284 284 284 286 292 298 303 300 297 289 287 274 267 268 267 262 257 256 256 253 252 253 251 241 250 265 256 242 234 240 251 265 280 276 282 279 288 272
274 272 270 272 274 274 275 275 275 275 274 275 279 281 285 288 292 289 285 278 274 272 269 265 271 265 259 250 251 249 245 243 244 245 253 253 241 233 229 239 266 277 296 284 282 281 284
274 273 273 273 275 273 272 268 267 267 270 269 268 271 274 275 277 278 275 271 274 268 257 264 265 265 251 251 249 249 247 251 259 264 262 263 261 265 249 263 274 290 297 294 286 278 273